When you browse on this site, cookies collect data to enhance your experience and personalize the content and advertising you see.
Visit our Privacy Policy to learn more. By continuing to use the site, you agree to this use of cookies and data.
  • In United Kingdom
  • List of Countries
  • For 7 days
  • Water Temperature
  • Satellite Maps
  • Weather Map
  • Weather Widgets
  • user-avatar
    Login

    Hourly Weather Union Hidalgo

    Today, 24 January, Thursday

    Time Temperature Precipitation Wind Pressure Humidity
    00:00 +23°C° 0 mm 11 mps 761 mmHg 69%
    01:00 +23°C° 0 mm 11 mps 761 mmHg 69%
    02:00 +23°C° 0 mm 11 mps 761 mmHg 69%
    03:00 +22°C° 0 mm 11 mps 760 mmHg 68%
    04:00 +22°C° 0 mm 10 mps 760 mmHg 68%
    05:00 +22°C° 0 mm 10 mps 760 mmHg 68%
    06:00 +22°C° 0 mm 10 mps 760 mmHg 68%
    07:00 +22°C° 0 mm 10 mps 761 mmHg 65%
    08:00 +23°C° 0 mm 11 mps 761 mmHg 63%
    09:00 +24°C° 0 mm 11 mps 762 mmHg 60%
    10:00 +26°C° 0 mm 11 mps 761 mmHg 56%
    11:00 +27°C° 0 mm 11 mps 761 mmHg 52%
    12:00 +28°C° 0 mm 10 mps 761 mmHg 48%
    13:00 +29°C° 0 mm 10 mps 760 mmHg 48%
    14:00 +29°C° 0 mm 10 mps 760 mmHg 47%
    15:00 +31°C° 0 mm 9 mps 759 mmHg 47%
    16:00 +28°C° 0 mm 9 mps 759 mmHg 52%
    17:00 +27°C° 0 mm 9 mps 759 mmHg 57%
    18:00 +24°C° 0 mm 9 mps 759 mmHg 62%
    19:00 +24°C° 0 mm 8 mps 760 mmHg 64%
    20:00 +23°C° 0 mm 8 mps 760 mmHg 67%
    21:00 +22°C° 0 mm 8 mps 760 mmHg 70%
    22:00 +22°C° 0 mm 8 mps 761 mmHg 71%
    23:00 +22°C° 0 mm 8 mps 761 mmHg 72%

    Tomorrow, 25 January, Friday

    Time Temperature Precipitation Wind Pressure Humidity
    00:00 +22°C° 0 mm 8 mps 761 mmHg 72%
    01:00 +22°C° 0 mm 8 mps 761 mmHg 73%
    02:00 +22°C° 0 mm 8 mps 760 mmHg 73%
    03:00 +22°C° 0 mm 8 mps 760 mmHg 73%
    04:00 +22°C° 0 mm 9 mps 760 mmHg 73%
    05:00 +22°C° 0 mm 9 mps 761 mmHg 72%
    06:00 +22°C° 0 mm 9 mps 761 mmHg 72%
    07:00 +23°C° 0 mm 9 mps 761 mmHg 68%
    08:00 +24°C° 0 mm 10 mps 762 mmHg 65%
    09:00 +24°C° 0 mm 10 mps 763 mmHg 62%
    10:00 +26°C° 0 mm 10 mps 762 mmHg 59%
    11:00 +27°C° 0 mm 10 mps 762 mmHg 55%
    12:00 +28°C° 0 mm 11 mps 762 mmHg 52%
    13:00 +28°C° 0 mm 11 mps 761 mmHg 53%
    14:00 +28°C° 0 mm 10 mps 760 mmHg 53%
    15:00 +28°C° 0 mm 10 mps 760 mmHg 54%
    16:00 +27°C° 0 mm 10 mps 760 mmHg 58%
    17:00 +26°C° 0 mm 10 mps 760 mmHg 63%
    18:00 +24°C° 0 mm 10 mps 760 mmHg 67%
    19:00 +24°C° 0 mm 10 mps 760 mmHg 67%
    20:00 +24°C° 0 mm 10 mps 761 mmHg 68%
    21:00 +23°C° 0 mm 10 mps 762 mmHg 68%
    22:00 +23°C° 0 mm 10 mps 762 mmHg 69%
    23:00 +23°C° 0 mm 10 mps 762 mmHg 70%

    Day after tomorrow, 26 January, Saturday

    Time Temperature Precipitation Wind Pressure Humidity
    00:00 +23°C° 0 mm 9 mps 762 mmHg 71%
    01:00 +23°C° 0 mm 9 mps 761 mmHg 72%
    02:00 +23°C° 0 mm 9 mps 761 mmHg 72%
    03:00 +22°C° 0 mm 8 mps 760 mmHg 73%
    04:00 +22°C° 0 mm 8 mps 760 mmHg 73%
    05:00 +22°C° 0 mm 8 mps 760 mmHg 72%
    06:00 +22°C° 0 mm 8 mps 760 mmHg 72%
    07:00 +23°C° 0 mm 8 mps 761 mmHg 69%
    08:00 +24°C° 0 mm 8 mps 761 mmHg 65%
    09:00 +26°C° 0 mm 8 mps 762 mmHg 62%
    10:00 +27°C° 0 mm 7 mps 761 mmHg 56%
    11:00 +29°C° 0 mm 7 mps 761 mmHg 50%
    12:00 +32°C° 0 mm 7 mps 760 mmHg 44%
    13:00 +32°C° 0 mm 7 mps 759 mmHg 44%
    14:00 +33°C° 0 mm 6 mps 758 mmHg 44%
    15:00 +33°C° 0 mm 6 mps 757 mmHg 44%
    16:00 +32°C° 0 mm 6 mps 757 mmHg 51%
    17:00 +29°C° 0 mm 6 mps 757 mmHg 58%
    18:00 +28°C° 0 mm 5 mps 757 mmHg 64%
    19:00 +26°C° 0 mm 5 mps 758 mmHg 69%
    20:00 +25°C° 0 mm 4 mps 759 mmHg 74%
    21:00 +23°C° 0 mm 4 mps 759 mmHg 78%
    22:00 +24°C° 0 mm 3 mps 759 mmHg 80%
    23:00 +24°C° 0 mm 3 mps 759 mmHg 81%

    27 January, Sunday

    Time Temperature Precipitation Wind Pressure Humidity
    00:00 +23°C° 0 mm 2 mps 759 mmHg 82%
    01:00 +23°C° 0 mm 2 mps 758 mmHg 81%
    02:00 +23°C° 0 mm 2 mps 758 mmHg 80%
    03:00 +23°C° 0 mm 2 mps 757 mmHg 79%
    04:00 +23°C° 0 mm 2 mps 757 mmHg 77%
    05:00 +23°C° 0 mm 1 mps 757 mmHg 74%
    06:00 +23°C° 0 mm 1 mps 757 mmHg 72%
    07:00 +25°C° 0 mm 1 mps 758 mmHg 64%
    08:00 +27°C° 0 mm 1 mps 758 mmHg 57%
    09:00 +29°C° 0 mm 1 mps 759 mmHg 49%
    10:00 +31°C° 0 mm 1 mps 759 mmHg 44%
    11:00 +33°C° 0 mm 1 mps 759 mmHg 39%
    12:00 +35°C° 0 mm 1 mps 759 mmHg 34%
    13:00 +36°C° 0 mm 2 mps 758 mmHg 38%
    14:00 +35°C° 0 mm 3 mps 757 mmHg 41%
    15:00 +34°C° 0 mm 5 mps 757 mmHg 45%
    16:00 +30°C° 0 mm 7 mps 757 mmHg 52%
    17:00 +28°C° 0 mm 9 mps 758 mmHg 59%
    18:00 +26°C° 0 mm 11 mps 759 mmHg 66%
    19:00 +24°C° 0 mm 11 mps 759 mmHg 66%
    20:00 +24°C° 0 mm 11 mps 760 mmHg 65%
    21:00 +24°C° 0 mm 11 mps 761 mmHg 65%
    22:00 +23°C° 0 mm 11 mps 761 mmHg 65%
    23:00 +23°C° 0 mm 11 mps 761 mmHg 66%

    28 January, Monday

    Time Temperature Precipitation Wind Pressure Humidity
    00:00 +23°C° 0 mm 11 mps 761 mmHg 67%
    01:00 +22°C° 0 mm 11 mps 760 mmHg 67%
    02:00 +22°C° 0 mm 10 mps 760 mmHg 67%
    03:00 +22°C° 0 mm 10 mps 759 mmHg 67%
    04:00 +21°C° 0 mm 9 mps 759 mmHg 68%
    05:00 +21°C° 0 mm 9 mps 759 mmHg 70%
    06:00 +21°C° 0 mm 8 mps 759 mmHg 71%
    07:00 +22°C° 0 mm 8 mps 760 mmHg 67%
    08:00 +23°C° 0 mm 8 mps 760 mmHg 64%
    09:00 +23°C° 0 mm 8 mps 760 mmHg 60%
    10:00 +26°C° 0 mm 7 mps 760 mmHg 55%
    11:00 +28°C° 0 mm 7 mps 759 mmHg 49%
    12:00 +30°C° 0 mm 6 mps 758 mmHg 44%
    13:00 +32°C° 0 mm 6 mps 758 mmHg 43%
    14:00 +32°C° 0 mm 5 mps 757 mmHg 42%
    15:00 +33°C° 0 mm 5 mps 756 mmHg 41%
    16:00 +30°C° 0 mm 4 mps 756 mmHg 47%
    17:00 +29°C° 0 mm 4 mps 756 mmHg 52%
    18:00 +28°C° 0 mm 4 mps 756 mmHg 58%
    19:00 +26°C° 0 mm 3 mps 757 mmHg 65%
    20:00 +25°C° 0 mm 3 mps 757 mmHg 71%
    21:00 +24°C° 0 mm 3 mps 758 mmHg 77%
    22:00 +22°C° 0 mm 3 mps 758 mmHg 78%
    23:00 +23°C° 0 mm 2 mps 757 mmHg 78%

    29 January, Tuesday

    Time Temperature Precipitation Wind Pressure Humidity
    00:00 +23°C° 0 mm 2 mps 757 mmHg 79%
    01:00 +23°C° 0 mm 2 mps 757 mmHg 75%
    02:00 +22°C° 0 mm 1 mps 756 mmHg 72%
    03:00 +22°C° 0 mm 1 mps 756 mmHg 69%
    04:00 +23°C° 0 mm 1 mps 756 mmHg 67%
    05:00 +23°C° 0 mm 1 mps 756 mmHg 64%
    06:00 +23°C° 0 mm 1 mps 756 mmHg 62%
    07:00 +24°C° 0 mm 1 mps 757 mmHg 60%
    08:00 +26°C° 0 mm 1 mps 757 mmHg 58%
    09:00 +28°C° 0 mm 2 mps 758 mmHg 56%
    10:00 +29°C° 0 mm 2 mps 758 mmHg 52%
    11:00 +31°C° 0 mm 3 mps 757 mmHg 48%
    12:00 +33°C° 0 mm 3 mps 757 mmHg 45%
    13:00 +33°C° 0 mm 4 mps 757 mmHg 44%
    14:00 +34°C° 0 mm 4 mps 756 mmHg 44%
    15:00 +34°C° 0 mm 5 mps 756 mmHg 43%
    16:00 +32°C° 0 mm 4 mps 756 mmHg 51%
    17:00 +30°C° 0 mm 3 mps 757 mmHg 59%
    18:00 +29°C° 0 mm 2 mps 757 mmHg 67%
    19:00 +27°C° 0 mm 2 mps 758 mmHg 71%
    20:00 +26°C° 0 mm 2 mps 759 mmHg 76%
    21:00 +25°C° 0 mm 2 mps 760 mmHg 81%
    22:00 +25°C° 0 mm 3 mps 760 mmHg 79%
    23:00 +25°C° 0 mm 5 mps 760 mmHg 78%
    Show more